Regional Weather Roundup
Issued by NWS

Home | Current Version | Previous Version | Text Only | Print | Product List | Glossary Off
Versions: 1 2 3 4 5 6 7 8 9 10 11 12 13 14 15 16 17 18 19 20 21 22 23 24 25 26 27

000
ASUS45 KCYS 260210
RWRWY

WYOMING REGIONAL WEATHER ROUNDUP
NATIONAL WEATHER SERVICE CHEYENNE WY
700 PM MST SAT FEB 25 2017

NOTE:  "FAIR" INDICATES FEW OR NO CLOUDS BELOW 12,000 FEET
WITH NO SIGNIFICANT WEATHER AND/OR OBSTRUCTIONS TO VISIBILITY.

WYZ001-260300-
YELLOWSTONE NATIONAL PARK

CITY           SKY/WX    TMP DP  RH WIND       PRES   REMARKS
LK YELLOWSTONE   N/A      4  -1  80 CALM      29.74R
W YELLOWSTONE  NOT AVBL

$$
WYZ002>013-054>058-071-098>099-260300-
NORTHERN WYOMING

CITY           SKY/WX    TMP DP  RH WIND       PRES   REMARKS
JACKSON        CLOUDY    14   7  73 S12       29.82F WCI   0
CODY           FAIR      22   1  40 W22G36    29.67S WCI   6
GREYBULL       FAIR      29   8  41 W17       29.70S WCI  17
WORLAND        FAIR      22   8  55 N5        29.70R WCI  16
SHERIDAN       MOCLDY    25  18  74 S8        29.70R WCI  16
BUFFALO        FAIR      16   5  62 W8        29.67R WCI   5
GILLETTE       MOCLDY    21  18  88 W5        29.67R WCI  15
HULETT         CLOUDY    23  21  93 W5        29.69S WCI  17
NEWCASTLE      FAIR      18  10  73 E9        29.70S WCI   6

$$
WYZ014>020-022>026-101>103-260300-
CENTRAL WYOMING

CITY           SKY/WX    TMP DP  RH WIND       PRES   REMARKS
BIG PINEY      FAIR      -6 -10  83 NW10      29.81S WCI -24
PINEDALE       FAIR       1  -4  78 NW8       29.81S WCI -12
DUBOIS         FAIR      10   0  61 W24       29.67R WCI -10
LANDER         FAIR      19  -3  38 W15       29.69F WCI   5
RIVERTON       FAIR      13  -2  51 W14       29.71R WCI  -2
CASPER         FAIR      15   5  64 SW20      29.70S WCI  -2
DOUGLAS        FAIR      15   5  64 W10       29.71S WCI   2

$$
WYZ021-027>030-104>119-260300-
SOUTHERN WYOMING

CITY           SKY/WX    TMP DP  RH WIND       PRES   REMARKS
EVANSTON       FAIR      11   7  84 SW15      29.87R FOG     WCI  -5
FORT BRIDGER   FAIR      12  10  92 W14       29.88R WCI  -3
ROCK SPRINGS   FAIR      12   6  77 W20       29.82S WCI  -6
DIXON            N/A     18   9  68 W5G16     29.87R WCI  11
RAWLINS        FAIR      13   6  74 W24       29.76R WCI  -7
SARATOGA       FAIR      14   5  67 W17G25    29.77F WCI  -3
LARAMIE        FAIR      12   0  58 W21       29.70F WCI  -7
CHEYENNE       FAIR      16   1  51 SW13      29.74R WCI   2
TORRINGTON     FAIR      22   9  57 W13       29.75F WCI  10
PINE BLUFFS    FAIR      18   7  62 W14G22    29.79F WCI   4

$$




USA.gov is the U.S. government's official web portal to all federal, state and local government web resources and services.